| time (UTC) | temp C | wind direction | speed KPH | gust KPH | rain 1hr cm | rain 24hr cm | rain mn cm | humidity % | barometer mb |
| 20260505152227 | 25 | 283 | 6.4 | 11.3 | 0.00 | 19.81 | 6.17 | 46 | 1009.3 |
| 20260505151727 | 25 | 268 | 0.0 | 11.3 | 0.00 | 19.81 | 6.17 | 48 | 1008.9 |
| 20260505151227 | 25 | 236 | 0.0 | 0.0 | 0.00 | 19.81 | 6.17 | 50 | 1009.0 |
| 20260505150727 | 25 | 203 | 3.2 | 24.1 | 0.00 | 19.81 | 6.17 | 48 | 1009.2 |
| 20260505150227 | 25 | 226 | 1.6 | 11.3 | 0.00 | 19.81 | 6.17 | 44 | 1008.7 |
| 20260505140226 | 24 | 227 | 1.6 | 11.3 | 0.00 | 19.81 | 6.17 | 47 | 1009.1 |
| 20260505130225 | 25 | 153 | 0.0 | 0.0 | 0.00 | 19.81 | 6.17 | 55 | 1009.3 |
| 20260505124725 | 25 | 272 | 0.0 | 11.3 | 0.00 | 19.81 | 6.17 | 47 | 1009.4 |
| 20260505124225 | 24 | 227 | 1.6 | 11.3 | 0.00 | 19.81 | 6.17 | 52 | 1009.3 |
| 20260505123725 | 24 | 294 | 0.0 | 0.0 | 0.00 | 19.81 | 6.17 | 53 | 1009.3 |
| 20260505123225 | 23 | 247 | 0.0 | 0.0 | 0.00 | 19.81 | 6.17 | 50 | 1009.4 |
| 20260505122725 | 23 | 236 | 0.0 | 0.0 | 0.00 | 19.81 | 6.17 | 54 | 1009.4 |
| 20260505122225 | 23 | 265 | 0.0 | 0.0 | 0.00 | 19.81 | 6.17 | 57 | 1009.5 |
| 20260505121725 | 23 | 228 | 0.0 | 11.3 | 0.00 | 19.81 | 6.17 | 53 | 1009.6 |
| 20260505121336 | 23 | 334 | 0.0 | 0.0 | 0.00 | 19.81 | 6.17 | 50 | 1009.6 |
| 20260505121225 | 23 | 334 | 0.0 | 0.0 | 0.00 | 19.81 | 6.17 | 50 | 1009.6 |
| 20260505120724 | 23 | 234 | 0.0 | 11.3 | 0.00 | 19.81 | 6.17 | 51 | 1009.7 |
| 20260505120224 | 22 | 236 | 0.0 | 0.0 | 0.00 | 19.81 | 6.17 | 57 | 1009.7 |
| 20260505115724 | 22 | 224 | 0.0 | 0.0 | 0.00 | 19.81 | 6.17 | 54 | 1009.9 |
| 20260505115224 | 22 | 199 | 0.0 | 0.0 | 0.00 | 19.81 | 6.17 | 57 | 1009.8 |
| 20260505114724 | 22 | 260 | 6.4 | 11.3 | 0.00 | 19.81 | 6.17 | 54 | 1009.7 |
| 20260505114224 | 22 | 279 | 0.0 | 11.3 | 0.00 | 19.81 | 6.17 | 59 | 1009.7 |
| 20260505113724 | 22 | 258 | 0.0 | 11.3 | 0.00 | 19.81 | 6.17 | 60 | 1009.7 |
| 20260505113224 | 22 | 242 | 0.0 | 0.0 | 0.00 | 19.81 | 6.17 | 62 | 1009.7 |
| 20260505112724 | 21 | 256 | 0.0 | 11.3 | 0.00 | 19.81 | 6.17 | 59 | 1010.1 |
| 20260505112224 | 21 | 269 | 0.0 | 0.0 | 0.00 | 19.81 | 6.17 | 61 | 1010.0 |
| 20260505111724 | 21 | 252 | 0.0 | 0.0 | 0.00 | 19.81 | 6.17 | 61 | 1009.9 |
| 20260505111224 | 20 | 208 | 3.2 | 11.3 | 0.00 | 19.81 | 6.17 | 62 | 1010.0 |
| 20260505110724 | 20 | 230 | 0.0 | 0.0 | 0.00 | 19.81 | 6.17 | 67 | 1010.0 |
| 20260505110224 | 20 | 225 | 0.0 | 0.0 | 0.00 | 19.81 | 6.17 | 68 | 1010.3 |
| 20260505101723 | 18 | 235 | 0.0 | 0.0 | 0.00 | 19.81 | 6.17 | 73 | 1010.0 |
| 20260505101223 | 18 | 298 | 0.0 | 11.3 | 0.00 | 19.81 | 6.17 | 71 | 1010.2 |
| 20260505100723 | 18 | 301 | 0.0 | 0.0 | 0.00 | 19.81 | 6.17 | 73 | 1010.1 |
| 20260505100223 | 17 | 237 | 0.0 | 0.0 | 0.00 | 19.81 | 6.17 | 76 | 1010.0 |
| 20260505095723 | 17 | 233 | 0.0 | 0.0 | 0.00 | 19.81 | 6.17 | 76 | 1010.1 |
| 20260505095223 | 17 | 284 | 0.0 | 0.0 | 0.00 | 19.81 | 6.17 | 79 | 1010.2 |
| 20260505094723 | 17 | 247 | 0.0 | 0.0 | 0.00 | 19.81 | 6.17 | 79 | 1010.1 |
| 20260505094223 | 17 | 262 | 0.0 | 11.3 | 0.00 | 19.81 | 6.17 | 79 | 1010.3 |
| 20260505093723 | 17 | 244 | 0.0 | 0.0 | 0.00 | 19.81 | 6.17 | 82 | 1010.2 |
| 20260505093223 | 17 | 277 | 0.0 | 0.0 | 0.00 | 19.81 | 6.17 | 80 | 1010.3 |
| 20260505092723 | 17 | 253 | 0.0 | 0.0 | 0.00 | 19.81 | 6.17 | 77 | 1010.0 |
| 20260505092223 | 16 | 227 | 0.0 | 11.3 | 0.00 | 19.81 | 6.17 | 76 | 1010.1 |
| 20260505091722 | 16 | 260 | 0.0 | 0.0 | 0.00 | 19.81 | 6.17 | 77 | 1010.3 |
| 20260505091222 | 16 | 8 | 0.0 | 0.0 | 0.00 | 19.81 | 6.17 | 82 | 1010.3 |
| 20260505090722 | 16 | 25 | 0.0 | 11.3 | 0.00 | 19.81 | 6.17 | 85 | 1010.3 |
| 20260505090222 | 16 | 292 | 0.0 | 0.0 | 0.00 | 19.81 | 6.17 | 84 | 1010.0 |
| 20260505085722 | 16 | 270 | 0.0 | 11.3 | 0.00 | 19.81 | 6.17 | 82 | 1010.1 |
| 20260505085222 | 16 | 273 | 0.0 | 0.0 | 0.00 | 19.81 | 6.17 | 85 | 1010.0 |
| 20260505084722 | 15 | 277 | 0.0 | 0.0 | 0.00 | 19.81 | 6.17 | 87 | 1009.9 |
| 20260505084222 | 15 | 277 | 0.0 | 0.0 | 0.00 | 19.81 | 6.17 | 87 | 1009.9 |
| 20260505083722 | 15 | 260 | 0.0 | 0.0 | 0.00 | 19.81 | 6.17 | 89 | 1010.0 |
| 20260505083222 | 15 | 275 | 0.0 | 0.0 | 0.00 | 19.81 | 6.17 | 89 | 1010.2 |
| 20260505082722 | 15 | 297 | 0.0 | 0.0 | 0.00 | 19.81 | 6.17 | 88 | 1009.9 |
| 20260505082222 | 15 | 252 | 0.0 | 0.0 | 0.00 | 19.81 | 6.17 | 89 | 1010.1 |
| 20260505081722 | 15 | 291 | 0.0 | 11.3 | 0.00 | 19.81 | 6.17 | 90 | 1010.1 |
| 20260505081222 | 15 | 228 | 0.0 | 0.0 | 0.00 | 19.81 | 6.17 | 91 | 1009.9 |
| 20260505080722 | 15 | 269 | 0.0 | 0.0 | 0.00 | 19.81 | 6.17 | 92 | 1009.9 |
| 20260505080222 | 15 | 246 | 0.0 | 0.0 | 0.00 | 19.81 | 6.17 | 93 | 1009.9 |
| 20260505075722 | 14 | 300 | 0.0 | 0.0 | 0.00 | 19.81 | 6.17 | 93 | 1009.7 |
| 20260505075221 | 14 | 264 | 0.0 | 0.0 | 0.00 | 19.81 | 6.17 | 93 | 1009.9 |
| 20260505074721 | 14 | 257 | 1.6 | 11.3 | 0.00 | 19.81 | 6.17 | 93 | 1009.8 |
| 20260505074221 | 14 | 284 | 0.0 | 0.0 | 0.00 | 19.81 | 6.17 | 93 | 1010.1 |
| 20260505073721 | 14 | 279 | 0.0 | 0.0 | 0.00 | 19.81 | 6.17 | 93 | 1009.8 |
| 20260505073221 | 14 | 282 | 4.8 | 11.3 | 0.00 | 19.81 | 6.17 | 94 | 1009.8 |
| 20260505072721 | 14 | 280 | 4.8 | 11.3 | 0.00 | 19.81 | 6.17 | 94 | 1009.8 |
| 20260505072221 | 14 | 256 | 0.0 | 0.0 | 0.00 | 19.81 | 6.17 | 95 | 1009.9 |
| 20260505071721 | 14 | 255 | 1.6 | 11.3 | 0.00 | 19.81 | 6.17 | 95 | 1009.9 |
| 20260505071221 | 14 | 255 | 1.6 | 11.3 | 0.00 | 19.81 | 6.17 | 95 | 1009.9 |
| 20260505070721 | 14 | 279 | 0.0 | 0.0 | 0.00 | 19.81 | 6.17 | 95 | 1009.6 |
| 20260505070221 | 14 | 223 | 0.0 | 11.3 | 0.00 | 19.81 | 6.17 | 95 | 1009.9 |
| 20260505065721 | 14 | 243 | 0.0 | 0.0 | 0.00 | 19.81 | 6.17 | 95 | 1009.8 |
| 20260505065221 | 13 | 275 | 0.0 | 0.0 | 0.00 | 19.81 | 6.17 | 95 | 1009.5 |
| 20260505064721 | 13 | 239 | 0.0 | 0.0 | 0.00 | 19.81 | 6.17 | 96 | 1009.5 |
| 20260505064221 | 13 | 266 | 8.0 | 11.3 | 0.00 | 19.81 | 6.17 | 96 | 1009.7 |
| 20260505063721 | 13 | 172 | 0.0 | 0.0 | 0.00 | 19.81 | 6.17 | 96 | 1009.3 |
| 20260505063221 | 13 | 274 | 0.0 | 0.0 | 0.00 | 19.81 | 6.17 | 96 | 1009.4 |
| 20260505062720 | 13 | 269 | 0.0 | 0.0 | 0.00 | 19.81 | 6.17 | 96 | 1009.5 |
| 20260505062220 | 13 | 266 | 0.0 | 0.0 | 0.00 | 19.81 | 6.17 | 96 | 1009.0 |
| 20260505061720 | 13 | 289 | 0.0 | 0.0 | 0.00 | 19.81 | 6.17 | 96 | 1009.3 |
| 20260505061220 | 13 | 274 | 0.0 | 0.0 | 0.00 | 19.81 | 6.17 | 96 | 1009.1 |
| 20260505060720 | 13 | 10 | 0.0 | 0.0 | 0.00 | 19.81 | 6.17 | 96 | 1009.3 |
| 20260505060220 | 13 | 275 | 0.0 | 0.0 | 0.00 | 19.81 | 6.17 | 96 | 1009.1 |
| 20260505055720 | 13 | 263 | 0.0 | 0.0 | 0.00 | 19.81 | 6.17 | 96 | 1009.3 |
| 20260505055220 | 13 | 273 | 0.0 | 0.0 | 0.00 | 19.81 | 6.17 | 96 | 1009.2 |
| 20260505054720 | 13 | 262 | 0.0 | 0.0 | 0.00 | 19.81 | 6.17 | 96 | 1009.2 |
| 20260505054220 | 13 | 275 | 0.0 | 0.0 | 0.00 | 19.81 | 6.17 | 96 | 1009.1 |
| 20260505053720 | 13 | 260 | 0.0 | 0.0 | 0.00 | 19.81 | 6.17 | 96 | 1009.2 |
| 20260505053220 | 12 | 264 | 0.0 | 0.0 | 0.00 | 19.81 | 6.17 | 96 | 1008.9 |
| 20260505052720 | 12 | 269 | 0.0 | 0.0 | 0.00 | 19.81 | 6.17 | 96 | 1008.7 |
| 20260505052220 | 12 | 268 | 0.0 | 0.0 | 0.00 | 19.81 | 6.17 | 96 | 1008.8 |
| 20260505051720 | 12 | 268 | 0.0 | 0.0 | 0.00 | 19.81 | 6.17 | 96 | 1008.9 |
| 20260505051220 | 12 | 267 | 0.0 | 0.0 | 0.00 | 19.81 | 6.17 | 96 | 1008.7 |
| 20260505050719 | 12 | 263 | 0.0 | 0.0 | 0.00 | 19.81 | 6.17 | 96 | 1008.7 |
| 20260505050219 | 12 | 265 | 0.0 | 0.0 | 0.00 | 19.81 | 6.17 | 96 | 1008.8 |
| 20260505041719 | 12 | 243 | 0.0 | 0.0 | 0.00 | 19.81 | 6.17 | 95 | 1008.7 |
| 20260505041219 | 12 | 272 | 0.0 | 0.0 | 0.00 | 19.81 | 6.17 | 95 | 1008.7 |
| 20260505040719 | 12 | 258 | 0.0 | 0.0 | 0.00 | 19.81 | 6.17 | 95 | 1008.7 |
| 20260505040219 | 12 | 265 | 0.0 | 0.0 | 0.00 | 19.81 | 6.17 | 95 | 1008.8 |
| 20260505035719 | 12 | 272 | 0.0 | 0.0 | 0.00 | 19.81 | 6.17 | 95 | 1008.6 |
| 20260505035218 | 12 | 266 | 0.0 | 0.0 | 0.00 | 19.81 | 6.17 | 95 | 1008.7 |
| 20260505034718 | 12 | 268 | 0.0 | 0.0 | 0.00 | 19.81 | 6.17 | 95 | 1008.6 |
| 20260505034218 | 12 | 272 | 0.0 | 0.0 | 0.00 | 19.81 | 6.17 | 95 | 1008.8 |
| 20260505033718 | 12 | 273 | 0.0 | 0.0 | 0.00 | 19.81 | 6.17 | 95 | 1008.9 |
| 20260505033218 | 12 | 267 | 0.0 | 0.0 | 0.00 | 19.81 | 6.17 | 95 | 1008.5 |
| 20260505032718 | 12 | 298 | 0.0 | 0.0 | 0.00 | 19.81 | 6.17 | 95 | 1008.5 |
| 20260505032218 | 12 | 298 | 0.0 | 0.0 | 0.00 | 19.81 | 6.17 | 95 | 1008.5 |
| 20260505031718 | 12 | 268 | 0.0 | 0.0 | 0.00 | 19.81 | 6.17 | 95 | 1008.5 |
| 20260505031218 | 12 | 258 | 0.0 | 0.0 | 0.00 | 19.81 | 6.17 | 95 | 1008.4 |
| 20260505030718 | 12 | 286 | 0.0 | 0.0 | 0.00 | 19.81 | 6.17 | 95 | 1008.5 |
| 20260505030218 | 12 | 313 | 0.0 | 0.0 | 0.00 | 19.81 | 6.17 | 95 | 1008.5 |
| 20260505025718 | 12 | 353 | 0.0 | 0.0 | 0.00 | 19.81 | 6.17 | 95 | 1008.7 |
| 20260505025218 | 12 | 269 | 0.0 | 0.0 | 0.00 | 19.81 | 6.17 | 95 | 1008.4 |
| 20260505024718 | 12 | 282 | 0.0 | 0.0 | 0.00 | 19.81 | 6.17 | 95 | 1008.6 |
| 20260505024218 | 12 | 252 | 0.0 | 0.0 | 0.00 | 19.81 | 6.17 | 95 | 1008.7 |
| 20260505023717 | 12 | 252 | 0.0 | 0.0 | 0.00 | 19.81 | 6.17 | 95 | 1008.7 |
| 20260505023217 | 12 | 272 | 0.0 | 0.0 | 0.00 | 19.81 | 6.17 | 95 | 1008.7 |
| 20260505022717 | 12 | 342 | 0.0 | 0.0 | 0.00 | 19.81 | 6.17 | 95 | 1008.8 |
| 20260505022217 | 13 | 275 | 0.0 | 0.0 | 0.00 | 19.81 | 6.17 | 95 | 1008.9 |
| 20260505021717 | 13 | 272 | 0.0 | 0.0 | 0.00 | 19.81 | 6.17 | 95 | 1009.0 |
| 20260505021217 | 13 | 261 | 0.0 | 0.0 | 4.57 | 19.81 | 6.17 | 95 | 1008.7 |
| 20260505020717 | 13 | 269 | 0.0 | 0.0 | 4.57 | 19.81 | 6.17 | 95 | 1008.9 |
| 20260505020217 | 13 | 271 | 0.0 | 0.0 | 0.00 | 19.05 | 6.10 | 95 | 1009.1 |
| 20260505015717 | 13 | 270 | 0.0 | 0.0 | 0.00 | 19.05 | 6.10 | 95 | 1008.8 |
| 20260505015217 | 13 | 282 | 0.0 | 0.0 | 0.00 | 19.05 | 6.10 | 95 | 1008.9 |
| 20260505014717 | 13 | 341 | 0.0 | 0.0 | 0.00 | 19.05 | 6.10 | 95 | 1008.8 |
| 20260505014217 | 13 | 290 | 0.0 | 0.0 | 0.00 | 19.05 | 6.10 | 95 | 1008.9 |
| 20260505013717 | 13 | 280 | 0.0 | 0.0 | 0.00 | 19.05 | 6.10 | 95 | 1008.8 |
| 20260505013217 | 13 | 261 | 0.0 | 0.0 | 0.00 | 19.05 | 6.10 | 95 | 1008.8 |
| 20260505012717 | 13 | 279 | 0.0 | 0.0 | 4.57 | 19.05 | 6.10 | 95 | 1008.6 |
| 20260505012217 | 13 | 254 | 0.0 | 0.0 | 4.57 | 19.05 | 6.10 | 95 | 1008.9 |
| 20260505011716 | 13 | 305 | 0.0 | 0.0 | 0.00 | 18.29 | 6.02 | 95 | 1009.1 |
| 20260505011216 | 13 | 247 | 0.0 | 0.0 | 4.57 | 18.29 | 6.02 | 95 | 1009.0 |
| 20260505010716 | 13 | 247 | 0.0 | 0.0 | 4.57 | 18.29 | 6.02 | 95 | 1009.0 |
| 20260505010216 | 13 | 267 | 0.0 | 0.0 | 9.14 | 18.29 | 6.02 | 95 | 1008.9 |
| 20260505005716 | 13 | 295 | 0.0 | 0.0 | 9.14 | 17.53 | 5.94 | 95 | 1009.0 |
| 20260505005216 | 13 | 41 | 0.0 | 11.3 | 0.00 | 16.00 | 5.79 | 95 | 1008.9 |
| 20260505004716 | 13 | 310 | 0.0 | 0.0 | 0.00 | 16.00 | 5.79 | 95 | 1009.1 |
| 20260505004216 | 13 | 267 | 0.0 | 0.0 | 4.57 | 16.00 | 5.79 | 95 | 1008.8 |
| 20260505003716 | 12 | 261 | 0.0 | 11.3 | 4.57 | 16.00 | 5.79 | 95 | 1009.0 |
| 20260505003216 | 12 | 279 | 0.0 | 0.0 | 0.00 | 15.24 | 5.71 | 95 | 1008.9 |
| 20260505002716 | 12 | 26 | 0.0 | 0.0 | 0.00 | 15.24 | 5.71 | 95 | 1009.1 |
| 20260505002216 | 12 | 0 | 0.0 | 11.3 | 0.00 | 15.24 | 5.71 | 95 | 1009.0 |
| 20260505001716 | 12 | 282 | 0.0 | 0.0 | 0.00 | 15.24 | 5.71 | 95 | 1009.0 |
| 20260505001216 | 12 | 260 | 0.0 | 0.0 | 0.00 | 15.24 | 5.71 | 95 | 1009.3 |
| 20260505000716 | 12 | 273 | 0.0 | 0.0 | 0.00 | 15.24 | 5.71 | 95 | 1009.2 |
| 20260505000216 | 12 | 294 | 0.0 | 0.0 | 4.57 | 15.24 | 5.71 | 95 | 1009.2 |
| 20260504235715 | 12 | 340 | 0.0 | 0.0 | 4.57 | 15.24 | 5.71 | 95 | 1009.4 |
| 20260504235215 | 12 | 353 | 0.0 | 0.0 | 0.00 | 14.48 | 5.64 | 95 | 1008.9 |
| 20260504234715 | 12 | 283 | 0.0 | 0.0 | 0.00 | 14.48 | 5.64 | 95 | 1009.0 |
| 20260504234215 | 12 | 305 | 0.0 | 0.0 | 4.57 | 14.48 | 5.64 | 95 | 1009.2 |
| 20260504233715 | 12 | 295 | 0.0 | 0.0 | 4.57 | 14.48 | 5.64 | 94 | 1009.4 |
| 20260504233215 | 12 | 327 | 0.0 | 0.0 | 4.57 | 13.72 | 5.56 | 94 | 1009.3 |
| 20260504232715 | 12 | 271 | 0.0 | 0.0 | 0.00 | 12.93 | 5.49 | 94 | 1009.3 |
| 20260504232215 | 12 | 32 | 0.0 | 0.0 | 4.57 | 12.93 | 5.49 | 94 | 1009.3 |
| 20260504231715 | 12 | 3 | 8.0 | 24.1 | 4.57 | 12.93 | 5.49 | 94 | 1009.2 |
| 20260504231215 | 12 | 283 | 0.0 | 0.0 | 4.57 | 12.19 | 5.41 | 94 | 1009.4 |
| 20260504230715 | 12 | 20 | 3.2 | 11.3 | 9.14 | 12.19 | 5.41 | 94 | 1009.5 |
| 20260504230215 | 12 | 199 | 0.0 | 11.3 | 9.14 | 11.43 | 5.33 | 94 | 1009.5 |
| 20260504225715 | 12 | 24 | 0.0 | 0.0 | 9.14 | 10.67 | 5.26 | 94 | 1009.5 |
| 20260504225215 | 12 | 254 | 0.0 | 0.0 | 9.14 | 9.91 | 5.16 | 94 | 1009.5 |
| 20260504224715 | 12 | 298 | 0.0 | 11.3 | 13.72 | 9.14 | 5.11 | 94 | 1009.5 |
| 20260504224214 | 12 | 285 | 0.0 | 0.0 | 9.14 | 7.62 | 4.95 | 94 | 1009.6 |
| 20260504223715 | 12 | 281 | 0.0 | 0.0 | 13.72 | 6.86 | 4.88 | 94 | 1009.8 |
| 20260504223214 | 12 | 281 | 0.0 | 0.0 | 13.72 | 6.10 | 4.78 | 94 | 1010.0 |
| 20260504222714 | 12 | 247 | 0.0 | 0.0 | 9.14 | 4.57 | 4.65 | 94 | 1009.9 |
| 20260504222214 | 12 | 330 | 0.0 | 11.3 | 13.72 | 3.81 | 4.57 | 94 | 1009.7 |
| 20260504221714 | 12 | 287 | 0.0 | 11.3 | 13.72 | 3.05 | 4.50 | 94 | 1009.6 |
| 20260504221214 | 12 | 283 | 0.0 | 0.0 | 9.14 | 1.52 | 4.34 | 93 | 1010.0 |
| 20260504220714 | 12 | 282 | 0.0 | 11.3 | 9.14 | 0.76 | 4.27 | 93 | 1009.9 |
| 20260504220214 | 12 | 332 | 12.9 | 24.1 | 13.72 | 0.00 | 4.19 | 93 | 1010.1 |
| 20260504215714 | 12 | 253 | 0.0 | 11.3 | 9.14 | 4.04 | 4.04 | 93 | 1010.1 |
| 20260504215214 | 12 | 50 | 3.2 | 11.3 | 4.57 | 3.96 | 3.96 | 93 | 1010.3 |
| 20260504214714 | 12 | 327 | 0.0 | 0.0 | 9.14 | 3.89 | 3.89 | 93 | 1010.2 |
| 20260504214214 | 12 | 261 | 0.0 | 0.0 | 13.72 | 3.81 | 3.81 | 92 | 1010.5 |
| 20260504213714 | 12 | 257 | 0.0 | 11.3 | 18.29 | 3.73 | 3.73 | 92 | 1010.3 |
| 20260504213214 | 12 | 275 | 0.0 | 0.0 | 4.57 | 3.51 | 3.51 | 92 | 1010.5 |
| 20260504212714 | 12 | 67 | 3.2 | 11.3 | 0.00 | 3.43 | 3.43 | 92 | 1010.5 |
| 20260504212214 | 12 | 285 | 0.0 | 0.0 | 0.00 | 3.43 | 3.43 | 92 | 1010.5 |
| 20260504211714 | 12 | 47 | 0.0 | 11.3 | 0.00 | 3.43 | 3.43 | 91 | 1010.4 |
| 20260504211213 | 12 | 275 | 3.2 | 11.3 | 0.00 | 3.43 | 3.43 | 91 | 1010.4 |
| 20260504210713 | 12 | 314 | 0.0 | 0.0 | 0.00 | 3.43 | 3.43 | 91 | 1010.3 |
| 20260504210213 | 11 | 346 | 0.0 | 0.0 | 0.00 | 3.43 | 3.43 | 92 | 1010.5 |
| 20260504205713 | 11 | 52 | 0.0 | 0.0 | 0.00 | 3.43 | 3.43 | 92 | 1010.4 |
| 20260504205213 | 11 | 43 | 0.0 | 0.0 | 0.00 | 3.43 | 3.43 | 92 | 1010.7 |
| 20260504204713 | 11 | 250 | 0.0 | 0.0 | 0.00 | 3.43 | 3.43 | 92 | 1010.5 |
| 20260504204213 | 11 | 231 | 6.4 | 24.1 | 0.00 | 3.43 | 3.43 | 92 | 1010.6 |
| 20260504203713 | 12 | 297 | 0.0 | 0.0 | 0.00 | 3.43 | 3.43 | 92 | 1010.5 |
| 20260504203213 | 12 | 43 | 0.0 | 0.0 | 0.00 | 3.43 | 3.43 | 92 | 1010.6 |
| 20260504202713 | 12 | 97 | 0.0 | 0.0 | 0.00 | 3.43 | 3.43 | 93 | 1010.7 |
| 20260504202213 | 12 | 251 | 0.0 | 0.0 | 0.00 | 3.43 | 3.43 | 93 | 1010.6 |
| 20260504201713 | 12 | 13 | 4.8 | 11.3 | 0.00 | 3.43 | 3.43 | 93 | 1010.7 |
| 20260504201213 | 12 | 216 | 0.0 | 0.0 | 0.00 | 3.43 | 3.43 | 93 | 1010.6 |
| 20260504200713 | 12 | 268 | 0.0 | 11.3 | 0.00 | 3.43 | 3.43 | 93 | 1010.6 |
| 20260504200212 | 12 | 340 | 1.6 | 11.3 | 0.00 | 3.43 | 3.43 | 93 | 1010.9 |
| 20260504195712 | 11 | 173 | 0.0 | 11.3 | 0.00 | 3.43 | 3.43 | 94 | 1010.7 |
| 20260504195212 | 11 | 219 | 0.0 | 0.0 | 0.00 | 3.43 | 3.43 | 94 | 1010.7 |
| 20260504194712 | 11 | 305 | 0.0 | 0.0 | 0.00 | 3.43 | 3.43 | 94 | 1010.8 |
| 20260504194212 | 11 | 293 | 0.0 | 11.3 | 0.00 | 3.43 | 3.43 | 94 | 1010.8 |
| 20260504193712 | 11 | 340 | 0.0 | 0.0 | 0.00 | 3.43 | 3.43 | 94 | 1010.8 |
| 20260504193212 | 11 | 249 | 0.0 | 11.3 | 0.00 | 3.43 | 3.43 | 94 | 1010.8 |
| 20260504192712 | 11 | 263 | 0.0 | 0.0 | 0.00 | 3.43 | 3.43 | 93 | 1010.8 |
| 20260504192212 | 11 | 298 | 0.0 | 11.3 | 0.00 | 3.43 | 3.43 | 93 | 1010.7 |
| 20260504191712 | 11 | 298 | 0.0 | 11.3 | 0.00 | 3.43 | 3.43 | 93 | 1010.7 |
| 20260504191212 | 11 | 279 | 0.0 | 0.0 | 0.00 | 3.43 | 3.43 | 93 | 1010.9 |
| 20260504190712 | 11 | 278 | 0.0 | 0.0 | 0.00 | 3.43 | 3.43 | 93 | 1010.9 |
| 20260504190212 | 11 | 306 | 0.0 | 0.0 | 9.14 | 3.43 | 3.43 | 93 | 1010.9 |
| 20260504185712 | 11 | 267 | 0.0 | 0.0 | 13.72 | 3.43 | 3.43 | 93 | 1010.8 |
| 20260504185212 | 11 | 322 | 0.0 | 0.0 | 13.72 | 3.28 | 3.28 | 93 | 1011.1 |
| 20260504184712 | 12 | 286 | 0.0 | 0.0 | 18.29 | 3.20 | 3.20 | 93 | 1011.1 |
| 20260504184212 | 12 | 322 | 0.0 | 0.0 | 13.72 | 3.05 | 3.05 | 93 | 1011.0 |
| 20260504183712 | 12 | 4 | 0.0 | 11.3 | 9.14 | 2.90 | 2.90 | 93 | 1011.1 |
| 20260504183211 | 12 | 238 | 0.0 | 0.0 | 9.14 | 2.82 | 2.82 | 93 | 1011.1 |
| 20260504182711 | 12 | 22 | 0.0 | 11.3 | 4.57 | 2.67 | 2.67 | 93 | 1011.2 |
| 20260504182211 | 12 | 253 | 0.0 | 11.3 | 13.72 | 2.67 | 2.67 | 93 | 1011.0 |
| 20260504181711 | 12 | 280 | 0.0 | 0.0 | 9.14 | 2.57 | 2.57 | 93 | 1011.0 |
| 20260504181211 | 12 | 283 | 0.0 | 0.0 | 0.00 | 24.38 | 24.38 | 93 | 1011.3 |
| 20260504180711 | 12 | 278 | 0.0 | 0.0 | 0.00 | 24.38 | 24.38 | 93 | 1011.3 |
| 20260504180211 | 12 | 226 | 0.0 | 0.0 | 0.00 | 24.38 | 24.38 | 93 | 1011.5 |
| 20260504175711 | 12 | 266 | 0.0 | 0.0 | 0.00 | 24.38 | 24.38 | 93 | 1011.4 |
| 20260504175211 | 12 | 268 | 0.0 | 0.0 | 4.57 | 24.38 | 24.38 | 93 | 1011.3 |
| 20260504174711 | 12 | 25 | 3.2 | 11.3 | 4.57 | 24.38 | 24.38 | 93 | 1011.2 |
| 20260504174211 | 12 | 21 | 0.0 | 0.0 | 0.00 | 23.62 | 23.62 | 93 | 1011.3 |
| 20260504173711 | 12 | 293 | 0.0 | 11.3 | 0.00 | 23.62 | 23.62 | 93 | 1011.3 |
| 20260504173211 | 12 | 355 | 0.0 | 0.0 | 0.00 | 23.62 | 23.62 | 93 | 1011.2 |
| 20260504172711 | 12 | 262 | 0.0 | 0.0 | 0.00 | 23.62 | 23.62 | 93 | 1011.4 |
| 20260504172211 | 12 | 8 | 0.0 | 0.0 | 0.00 | 23.62 | 23.62 | 93 | 1011.3 |
| 20260504171711 | 12 | 325 | 0.0 | 0.0 | 0.00 | 23.62 | 23.62 | 93 | 1011.2 |
| 20260504171211 | 13 | 8 | 0.0 | 0.0 | 0.00 | 23.62 | 23.62 | 93 | 1011.3 |
| 20260504170710 | 13 | 272 | 0.0 | 0.0 | 0.00 | 23.62 | 23.62 | 93 | 1011.3 |
| 20260504170210 | 13 | 269 | 0.0 | 0.0 | 0.00 | 23.62 | 23.62 | 93 | 1011.4 |
| 20260504160210 | 13 | 280 | 0.0 | 0.0 | 0.00 | 22.86 | 22.86 | 93 | 1011.7 |